Location: Helensbirgh
(56.0153°N, 4.7348°W)
Time: 06:54:39
(UTC+00:00)

Envisat - Pass Details

Date: 21 October 2019
Orbit: 764 x 766 km, 98.1° (Epoch: 21 November)

Event Time Altitude Azimuth Distance (km) Brightness Sun altitude
Rises 06:33:40 0° 28° (NNE) 3,247 6.6 -13.0°
Reaches altitude 10° 06:37:46 10° 60° (ENE) 2,313 6.5 -12.4°
Maximum altitude 06:39:31 12° 80° (E) 2,197 6.8 -12.1°
Drops below altitude 10° 06:41:15 10° 101° (E) 2,307 7.0 -11.9°
Sets 06:45:18 0° 133° (SE) 3,225 7.1 -11.3°
